Regional Weather Roundup
Issued by NWS

Home | Current Version | Previous Version | Text Only | Print | Product List | Glossary Off
Versions: 1 2 3 4 5 6 7 8 9 10 11 12 13 14 15 16 17 18 19 20 21 22 23 24 25 26 27 28 29 30 31 32 33 34 35 36 37 38 39 40 41 42 43 44 45 46 47 48 49 50

000
ASUS43 KLOT 281501
RWRIL

ILLINOIS REGIONAL WEATHER ROUNDUP
NATIONAL WEATHER SERVICE CHICAGO/ROMEOVILLE IL
1000 AM CDT FRI AUG 28 2015

NOTE: "FAIR" INDICATES FEW OR NO CLOUDS BELOW 12,000 FEET WITH NO
SIGNIFICANT WEATHER AND/OR OBSTRUCTIONS TO VISIBILITY.

* THESE STATIONS ARE NOT UNDER NWS QUALITY CONTROL. THEY ALSO MAY NOT
  REPORT WEATHER SUCH AS PRECIPITATION OR FOG.

ILZ001-002-007-009-015-016-024-281600-
NORTHWEST ILLINOIS

CITY           SKY/WX    TMP DP  RH WIND       PRES   REMARKS
MOLINE         CLOUDY    65  59  81 SE3       30.10S
STERLING*      CLOUDY   N/A N/A N/A S7        30.10S
$$

ILZ003-004-008-010-011-017-018-281600-
NORTH CENTRAL ILLINOIS

CITY           SKY/WX    TMP DP  RH WIND       PRES   REMARKS
ROCKFORD       CLOUDY    65  59  81 S6        30.14S
$$

ILZ005-006-012>014-019>023-281600-
NORTHEAST ILLINOIS

CITY           SKY/WX    TMP DP  RH WIND       PRES   REMARKS
CHICAGO-OHARE  CLOUDY    70  59  68 SW6       30.15R
CHICAGO-MIDWAY CLOUDY    71  58  63 S5        30.15R
AURORA         CLOUDY    65  60  84 S3        30.16R HAZE
WAUKEGAN       PTSUNNY   70  60  70 SW7       30.14S
DUPAGE AIRPORT CLOUDY    66  59  78 S6        30.15R
WHEELING       PTSUNNY   71  58  63 CALM      30.16R
NORTHERLY ISL    N/A     71  57  61 S2          N/A
$$

LMZ740>746-281600-
SOUTHERN LAKE MICHIGAN

STATION/POSITION SKY/WX   TEMP    WIND        PRES    VSBY  WAVE
                          AIR SEA DIR/SP/G                  HT/PER
                          (F)     (DEG/KT/KT) (MB)    (MI)  (FT/S)
SOUTHERN BUOY              67 68  180/  8/ 10 1020.9R
WILMETTE HARBOR            59 55  340/  2/  4   N/A           1/ 3
HARRISON CRIB              64     160/  6/  8   N/A
BURNHAM HARBOR             65     160/  2/  4   N/A
CALUMET HARBOR             67     210/  5/  7   N/A
BURNS HARBOR               67     180/  8/ 11 1021.3S
MICHIGAN CITY              65     140/  9/ 10   N/A
MICHIGAN CITY 6N           65 70  190/  8/ 12   N/A           1/ 2
ST. JOSEPH                 64 71  210/  6/  8   N/A           1/ 2
$$

ILZ025>027-034>036-040-047-049-050-058-095>099-281600-
WEST-CENTRAL ILLINOIS

CITY           SKY/WX    TMP DP  RH WIND       PRES   REMARKS
QUINCY         CLOUDY    70  60  70 SE9       30.09S
MACOMB*        CLOUDY    64  62  91 SE5       30.13S
$$

ILZ028>032-037-038-041>044-048-051>054-059>061-281600-
CENTRAL ILLINOIS

CITY           SKY/WX    TMP DP  RH WIND       PRES   REMARKS
DECATUR        CLOUDY    72  60  66 S8        30.16R
PEORIA         CLOUDY    70  60  70 S6        30.14S
SPRINGFIELD    CLOUDY    72  62  71 S7        30.14S
TAYLORVILLE    NOT AVBL
$$

ILZ033-039-045-046-055>057-062-063-281600-
EAST-CENTRAL ILLINOIS

CITY           SKY/WX    TMP DP  RH WIND       PRES   REMARKS
CHAMPAIGN      CLOUDY    70  61  73 S5        30.16S
MATTOON        PTSUNNY   70  59  68 S7        30.16S
$$

ILZ079-100>102-281600-
SOUTHWEST ILLINOIS

CITY           SKY/WX    TMP DP  RH WIND       PRES   REMARKS
ALTON          SUNNY     70  63  78 SE6       30.13S
BELLEVILLE     MOSUNNY   71  65  80 SE5       30.12S
CAHOKIA*       MOSUNNY   73  61  65 SE7       30.12S
$$

ILZ064>066-069>071-074>076-080>082-084>086-088>090-092>094-281600-
SOUTH-CENTRAL ILLINOIS

CITY           SKY/WX    TMP DP  RH WIND       PRES   REMARKS
CARBONDALE     SUNNY     70  62  76 SE5       30.13S
MT. VERNON     MOSUNNY   72  59  64 S3        30.16R
SALEM*         PTSUNNY   72  60  67 SE5       30.15S
$$

ILZ067-068-072-073-078-083-087-091-281600-
SOUTHEAST ILLINOIS

CITY           SKY/WX    TMP DP  RH WIND       PRES   REMARKS
LAWRENCEVILLE  MOSUNNY   72  58  61 E3        30.16S
ROBINSON*      PTSUNNY   72  60  65 CALM      30.18R
$$

ABBREVIATIONS USED IN REMARKS
   TC - TEMPERATURE IN CELSIUS
  WCI - WIND CHILL INDEX
   HX - HEAT INDEX
  VSB - VISIBILITY
$$



USA.gov is the U.S. government's official web portal to all federal, state and local government web resources and services.